This is the latest recevied weather packets stored in our database for station/object KE8RXN. If no packets are shown the sender has not sent any weather packets the latest 10 day(s).
| Time | Temp. | Humidity | Pressure | Rain* | Wind** | Luminosity | Snow |
|---|---|---|---|---|---|---|---|
| 1777312543 | 22.22° C | 49% | 1014.8 hPa | 0 mm | - | 399 W/m² | - |
| 1777312240 | 22.22° C | 49% | 1014.9 hPa | 0 mm | - | 390 W/m² | - |
| 1777311937 | 22.22° C | 51% | 1014.7 hPa | 0 mm | - | 389 W/m² | - |
| 1777311634 | 22.22° C | 50% | 1015 hPa | 0 mm | - | 423 W/m² | - |
| 1777311332 | 21.67° C | 50% | 1015 hPa | 0 mm | - | 442 W/m² | - |
| 1777311029 | 21.67° C | 52% | 1015 hPa | 0 mm | - | 465 W/m² | - |
| 1777310727 | 21.11° C | 53% | 1015.2 hPa | 0 mm | - | 462 W/m² | - |
| 1777310424 | 21.11° C | 53% | 1015.3 hPa | 0 mm | - | 427 W/m² | - |
| 1777310121 | 21.11° C | 53% | 1015.4 hPa | 0 mm | - | 357 W/m² | - |
| 1777309819 | 21.11° C | 53% | 1015.6 hPa | 0 mm | - | 395 W/m² | - |
| 1777309517 | 20.56° C | 54% | 1015.8 hPa | 0 mm | - | 373 W/m² | - |
| 1777309213 | 20.56° C | 54% | 1016.3 hPa | 0 mm | - | 353 W/m² | - |
| 1777308912 | 20° C | 55% | 1016.3 hPa | 0 mm | - | 300 W/m² | - |
| 1777308607 | 20.56° C | 54% | 1016.4 hPa | 0 mm | - | 285 W/m² | - |
| 1777308303 | 20.56° C | 55% | 1016.7 hPa | 0 mm | - | 250 W/m² | - |
| 1777307998 | 20.56° C | 57% | 1016.5 hPa | 0 mm | - | 286 W/m² | - |
| 1777307696 | 20.56° C | 54% | 1016.7 hPa | 0 mm | - | 356 W/m² | - |
| 1777307392 | 20.56° C | 56% | 1016.7 hPa | 0 mm | - | 348 W/m² | - |
| 1777307090 | 20° C | 57% | 1016.7 hPa | 0 mm | - | 396 W/m² | - |
| 1777306787 | 20° C | 58% | 1017.1 hPa | 0 mm | - | 436 W/m² | - |
| 1777306485 | 20° C | 56% | 1017 hPa | 0 mm | - | 378 W/m² | - |
| 1777306180 | 20° C | 58% | 1017 hPa | 0 mm | - | 389 W/m² | - |
| 1777305874 | 19.44° C | 59% | 1017.1 hPa | 0 mm | - | 402 W/m² | - |
| 1777305571 | 19.44° C | 59% | 1016.9 hPa | 0 mm | - | 483 W/m² | - |
| 1777305267 | 18.89° C | 60% | 1016.8 hPa | 0 mm | - | 419 W/m² | - |
* Rain latest hour (hover to see other rain measurements)
** Current wind speed in m/s (hover to see current wind gust speed)